Weather History for Greenville/Spartanburg, SC

Change the Weather History Date:

Sunday, May 5, 2013

  Actual Average Record
Temperature  
Mean Temperature 52 °F 66 °F  
Max Temperature 54 °F 77 °F 91 °F (1934)
Min Temperature 49 °F 54 °F 35 °F (1885)
Degree Days  
Heating Degree Days 13 2  
Month to date heating degree days 37 13  
Since 1 July heating degree days 2930 3019  
Cooling Degree Days 0 3  
Month to date cooling degree days 0 13  
Year to date cooling degree days 37 61  
Growing Degree Days 1 (Base 50)    
Moisture  
Dew Point 51 °F    
Average Humidity 97    
Maximum Humidity 100    
Minimum Humidity 93    
Precipitation  
Precipitation 3.19 in 0.12 in 3.19 in (2013)
Month to date precipitation 4.01 0.61  
Year to date precipitation 21.40 16.28  
Snow  
Snow 0.00 in 0.00 in 0.00 in ()
Month to date snowfall 0.0 0.0  
Since 1 July snowfall 2.0 4.7  
Snow Depth 0.00 in    
Sea Level Pressure  
Sea Level Pressure 29.87 in    
Wind  
Wind Speed 12 mph (NE)    
Max Wind Speed 24 mph    
Max Gust Speed 31 mph    
Visibility 4 miles    
Events Rain    
T = Trace of Precipitation, MM = Missing Value Source: NWS Daily Summary

Daily Weather History Graph

Daily Weather History Graph

Search for Another Location

Airport:

Trip Planner

Search our weather history database for the weather conditions in past years. The results will help you decide how hot, cold, wet, or windy it might be!

Date:

Astronomy

May. 05, 2013 Rise Set
Actual Time 6:33 AM EDT 8:17 PM EDT
Civil Twilight 6:06 AM EDT 8:44 PM EDT
Nautical Twilight 5:33 AM EDT 9:18 PM EDT
Astronomical Twilight 4:58 AM EDT 9:53 PM EDT
Moon 3:53 AM EDT (5/5) 4:24 PM EDT (5/5)
Length of Visible Light 14h 38m
Length of Day
13h 43m
Waning Crescent, 18% of the Moon is Illuminated
May 5
Waning Crescent
May 9
New
May 18
First Quarter
May 25
Full
May 31
Last Quarter

Hourly Weather History & Observations

Time (EDT) Temp. Dew Point Humidity Pressure Visibility Wind Dir Wind Speed Gust Speed Precip Events Conditions
12:28 AM 53.6 °F 51.8 °F 94% 29.95 in 6.0 mi NE 15.0 mph 21.9 mph 0.04 in Rain Light Rain
12:36 AM 53.6 °F 51.8 °F 94% 29.95 in 8.0 mi NNE 12.7 mph 21.9 mph 0.05 in Rain Light Rain
12:41 AM 53.6 °F 51.8 °F 94% 29.95 in 8.0 mi NE 13.8 mph 19.6 mph 0.06 in Rain Light Rain
12:49 AM 53.6 °F 51.8 °F 94% 29.96 in 5.0 mi NE 13.8 mph - 0.07 in Rain Rain
12:53 AM 53.1 °F 52.0 °F 96% 29.94 in 5.0 mi NE 15.0 mph - 0.08 in Rain Rain
1:53 AM 53.1 °F 52.0 °F 96% 29.91 in 9.0 mi NE 17.3 mph 24.2 mph 0.14 in Rain Light Rain
2:53 AM 54.0 °F 52.0 °F 93% 29.88 in 6.0 mi NE 20.7 mph 27.6 mph 0.07 in Rain Rain
3:53 AM 53.1 °F 52.0 °F 96% 29.90 in 2.5 mi ENE 9.2 mph 19.6 mph 0.31 in Rain Heavy Rain
4:00 AM 53.6 °F 51.8 °F 94% 29.91 in 3.0 mi NE 9.2 mph - 0.04 in Rain Heavy Rain
4:13 AM 53.6 °F 51.8 °F 94% 29.91 in 4.0 mi NE 11.5 mph - 0.09 in Rain Heavy Rain
4:32 AM 51.8 °F 51.8 °F 100% 29.87 in 3.0 mi NE 20.7 mph 29.9 mph 0.18 in Rain Heavy Rain
4:44 AM 51.8 °F 51.8 °F 100% 29.88 in 6.0 mi NE 12.7 mph 23.0 mph 0.22 in Rain Light Rain
4:53 AM 52.0 °F 51.1 °F 97% 29.87 in 10.0 mi ENE 15.0 mph 21.9 mph 0.23 in Rain Light Rain
5:53 AM 52.0 °F 51.1 °F 97% 29.85 in 5.0 mi NE 15.0 mph - 0.12 in Rain Light Rain
6:41 AM 51.8 °F 50.0 °F 94% 29.87 in 1.2 mi NE 12.7 mph - 0.09 in Rain Heavy Rain
6:53 AM 51.1 °F 50.0 °F 96% 29.87 in 2.0 mi NE 16.1 mph - 0.13 in Rain Heavy Rain
7:28 AM 51.8 °F 50.0 °F 94% 29.88 in 1.2 mi ENE 12.7 mph 21.9 mph 0.11 in Rain Heavy Rain
7:53 AM 51.1 °F 50.0 °F 96% 29.90 in 1.2 mi NE 10.4 mph 19.6 mph 0.22 in Rain Rain
8:20 AM 51.8 °F 50.0 °F 94% 29.90 in 1.2 mi NNE 11.5 mph - 0.11 in Rain Rain
8:28 AM 51.8 °F 50.0 °F 94% 29.89 in 1.2 mi NE 12.7 mph - 0.15 in Rain Heavy Rain
8:35 AM 51.8 °F 50.0 °F 94% 29.89 in 1.2 mi NNE 12.7 mph - 0.20 in Rain Heavy Rain
8:53 AM 50.0 °F 48.9 °F 96% 29.88 in 2.0 mi NE 16.1 mph 23.0 mph 0.28 in Rain Heavy Rain
9:33 AM 48.2 °F 48.2 °F 100% 29.89 in 2.0 mi NE 15.0 mph - 0.14 in Rain Rain
9:50 AM 48.2 °F 48.2 °F 100% 29.90 in 2.0 mi NNE 13.8 mph - 0.25 in Rain Heavy Rain
9:53 AM 48.9 °F 48.0 °F 97% 29.90 in 2.0 mi NE 12.7 mph - 0.27 in Rain Heavy Rain
10:06 AM 48.2 °F 48.2 °F 100% 29.90 in 3.0 mi NE 11.5 mph - 0.07 in Rain Heavy Rain
10:53 AM 50.0 °F 48.9 °F 96% 29.90 in 3.0 mi NE 11.5 mph - 0.22 in Rain Heavy Rain
11:46 AM 50.0 °F 48.2 °F 94% 29.90 in 2.0 mi NE 13.8 mph - 0.18 in Rain Heavy Rain
11:53 AM 51.1 °F 50.0 °F 96% 29.88 in 2.5 mi NE 12.7 mph - 0.21 in Rain Rain
12:00 PM 51.8 °F 50.0 °F 94% 29.90 in 5.0 mi NE 12.7 mph - 0.00 in Rain Light Rain
12:07 PM 51.8 °F 50.0 °F 94% 29.90 in 6.0 mi NE 13.8 mph - 0.01 in Rain Light Rain
12:24 PM 51.8 °F 50.0 °F 94% 29.89 in 4.0 mi NE 18.4 mph 24.2 mph 0.03 in Rain Rain
12:53 PM 51.1 °F 50.0 °F 96% 29.87 in 8.0 mi NE 16.1 mph 23.0 mph 0.10 in Rain Light Rain
1:12 PM 51.8 °F 50.0 °F 94% 29.88 in 1.8 mi NNE 12.7 mph 19.6 mph 0.05 in Rain Heavy Rain
1:39 PM 51.8 °F 50.0 °F 94% 29.87 in 3.0 mi NE 11.5 mph - 0.19 in Rain Rain
1:45 PM 51.8 °F 50.0 °F 94% 29.86 in 2.0 mi NE 13.8 mph - 0.21 in Rain Heavy Rain
1:53 PM 51.8 °F 51.8 °F 100% 29.87 in 5.0 mi ENE 12.7 mph - N/A Rain Light Rain
2:05 PM 51.8 °F 51.8 °F 100% 29.86 in 10.0 mi NE 12.7 mph 19.6 mph 0.00 in Rain Light Rain
2:24 PM 53.6 °F 51.8 °F 94% 29.86 in 2.0 mi ENE 13.8 mph - 0.03 in Rain Rain
2:53 PM 54.0 °F 52.0 °F 93% 29.86 in 2.0 mi NE 12.7 mph - 0.08 in Rain Light Rain
3:13 PM 53.6 °F 51.8 °F 94% 29.86 in 10.0 mi ENE 13.8 mph 24.2 mph 0.03 in Rain Light Rain
3:53 PM 54.0 °F 52.0 °F 93% 29.83 in 10.0 mi NE 20.7 mph 31.1 mph 0.03 in   Overcast
4:53 PM 53.1 °F 51.1 °F 93% 29.81 in 10.0 mi NE 16.1 mph 23.0 mph 0.00 in Rain Light Rain
5:53 PM 52.0 °F 51.1 °F 97% 29.82 in 3.0 mi NNE 11.5 mph 23.0 mph 0.03 in Rain Rain
6:16 PM 51.8 °F 51.8 °F 100% 29.83 in 1.0 mi NNE 6.9 mph - 0.09 in Rain Heavy Rain
6:53 PM 52.0 °F 51.1 °F 97% 29.82 in 1.0 mi NNE 9.2 mph - 0.22 in Rain Rain
7:53 PM 52.0 °F 51.1 °F 97% 29.82 in 2.0 mi North 8.1 mph - 0.14 in Rain Rain
8:06 PM 51.8 °F 51.8 °F 100% 29.82 in 1.0 mi North 8.1 mph - 0.11 in Rain Rain
8:53 PM 52.0 °F 51.1 °F 97% 29.81 in 3.0 mi North 8.1 mph - 0.16 in Rain Light Rain
9:53 PM 53.1 °F 52.0 °F 96% 29.81 in 5.0 mi NNE 5.8 mph - 0.01 in   Overcast
10:53 PM 53.1 °F 52.0 °F 96% 29.81 in 5.0 mi North 4.6 mph - N/A   Overcast
11:11 PM 53.6 °F 51.8 °F 94% 29.82 in 5.0 mi Calm Calm - N/A   Overcast
11:53 PM 53.1 °F 53.1 °F 100% 29.81 in 10.0 mi Calm Calm - N/A   Overcast